Sheriff Indiana Allen County Courthouse Allen County Sheriff's Department - Ken Fries, Sheriff | Allen County, Indiana
Sheriff Ken Fries

Activity Logs

Activity Log for August 2, 2013

Back to List of Log Dates


Incident Time Nature Address
13A034525 00:00:17 48 Suspicious 146xx Sr 1 & Wayne St
13A034526 00:01:10 123 Leo/cedarvi 150xx Sr 1
13A034527 00:11:34 120 Grabill 135xx State St
13A034528 00:25:05 101 Open Door 128xx Country Shoal Ln
13A034529 00:29:39 101 Open Door 127xx Country Shoal Ln
13A034530 00:41:41 Test Law 137xx Puff Rd
13A034531 01:01:34 48,35 110xx Grabill Rd & Schwartz Rd
13A034532 01:50:08 101 Open Door 89xx Dunmore Ln
13A034533 01:52:22 30 Traffic Stop 39xx Pontiac St E & Coliseum Blvd
13A034534 01:53:19 122 Huntertown 150xx Old Lima Rd
13A034535 01:58:14 101 Open Door 149xx Towne Park Run
13A034536 02:08:31 101 Open Door 26xx Stonecrop Rd
13A034537 02:18:52 Test Law 153xx Bears Breech Ct
13A034538 02:29:52 48,36 Bergenia Cv
13A034539 03:10:13 48,36 74xx Wheelock Rd & Rothman Ln
13A034540 03:20:51 101 Open Door 58xx Hollopeter Rd
13A034541 03:51:56 30 Traffic Stop 126xx Diebold Rd & Union Chapel Rd
13A034542 03:55:13 40a Audible 122xx Mossy Oak Run
13A034543 03:59:39 48 Suspicious 170xx Sr 1
13A034544 04:25:00 101 Open Door 171xx Twin Fawn Trl
13A034545 04:43:53 15 Assist 29xx Washington Blvd E & Maumee Av
13A034546 05:15:52 30 Traffic Stop 34xx Crescent Ave & Springfield Av
13A034547 05:19:41 30 Traffic Stop 14xx Washington Center Rd E & Clin
13A034548 06:08:10 122 Huntertown 150xx Old Lima Rd
13A034549 06:29:10 11 Pick Up Pris 13xx Minnich Rd
13A034550 06:34:12 11 Pick Up Pris 1 Oc
13A034551 06:51:30 30 Traffic Stop 99xx Bethel Rd
13A034552 07:08:11 11 Pick Up Pris 1 Oc
13A034553 07:22:29 11 Pick Up Pris 7xx Broadway
13A034554 07:38:11 30 Traffic Stop 317xx I 69 Sb
13A034555 07:53:21 50ip Burg I/p 70xx Wayne Trace
13A034556 08:14:24 14s Serving War 28xx Lincolndale Ave
13A034557 08:31:03 111 Animal Inve 146xx Bluffton Rd
13A034558 09:08:39 14s Serving War 6xx Suttenfield Ave E
13A034559 09:20:34 14s Serving War 35xx Winter St
13A034560 09:25:00 14s Serving War 1xx Superior St E
13A034561 09:28:17 40a Audible 59xx Northbridge Rd
13A034562 09:33:37 108 Followup 91xx Yeager Ln
13A034563 09:36:32 14s Serving War 44xx Lillie St
13A034564 09:41:56 22n Child Negle 202xx Monroeville Rd
13A034565 09:51:51 911 Hang Up 111xx Parkview Plaza Dr
13A034566 10:13:36 80p Serving Po 34xx Mccormick Ave
13A034567 10:19:27 22n Child Negle 202xx Monroeville Rd
13A034568 10:20:09 80p Serving Po 36xx Felician St
13A034569 10:22:53 14s Serving War 1xx Berry St W
13A034570 10:25:59 14s Serving War 61xx Bunt Dr
13A034571 10:33:28 911 Hang Up 71xx Hollopeter Rd
13A034572 10:41:41 14s Serving War 44xx Anthony Blvd S
13A034573 11:05:12 15 Assist 3xx Jefferson Blvd W
13A034574 11:05:58 108 Followup 9xx Francis St
13A034575 11:20:18 14s Serving War 14xx Harrison St N
13A034576 11:25:49 122 Huntertown 150xx Old Lima Rd
13A034577 11:28:28 30 Traffic Stop 53xx Lower Huntington Rd & Smith R
13A034578 11:43:29 15 Assist 20xx Drexel Ave
13A034579 11:46:05 11 Pick Up Pris 7xx Broadway
13A034580 11:47:12 129 27xx State Blvd E
13A034581 11:48:34 30 Traffic Stop 8xx Ley Rd & Lima Rd
13A034582 12:04:49 33 Disabled Veh 162xx Lima Rd & Cedar Canyons Rd W
13A034583 12:14:27 26 Pi Accident 212xx Us 30 E & Sr 101 S
13A034584 12:21:41 25hs Hit Skip 170xx Davis Rd
13A034585 12:36:10 15 Assist 57xx Jefferson Blvd W
13A034586 12:37:31 911 Hang Up 103xx Diebold Rd
13A034587 12:38:26 80p Serving Po 12xx Packard Ave W
13A034588 12:39:13 14s Serving War 21xx Eby Ave
13A034589 12:52:45 46,96 4xx Elm St
13A034590 13:18:42 30 Traffic Stop 152xx Doty Rd & Milan Center Rd
13A034591 13:26:49 30 Traffic Stop 152xx Doty Rd & Milan Center Rd
13A034592 13:34:01 122 Huntertown 150xx Old Lima Rd
13A034593 13:35:10 30 Traffic Stop 152xx Doty Rd & Milan Center Rd
13A034594 13:35:30 911 Hang Up 160xx Leazer Cv
13A034595 13:37:31 17r Reread 68xx Hunters Glen Dr
13A034596 13:39:06 17r Reread 124xx Sr 1
13A034597 13:41:43 15 Assist 21xx Eden St
13A034598 13:44:25 911 Hang Up 15xx Bear Claw Ln
13A034599 13:56:54 30 Traffic Stop 65xx Milan Center Rd & Doty Rd
13A034600 14:05:57 26 Pi Accident 94xx Clinton St N & Diebold Rd
13A034601 14:10:27 30 Traffic Stop 152xx Doty Rd & Milan Center Rd
13A034602 14:24:00 14s Serving War 9xx Library Plaza
13A034603 14:29:42 30 Traffic Stop 141xx Us 30 E & Old Lincoln Hwy E
13A034604 14:38:07 30 Traffic Stop 23xx Airport Expressway & Bluffton
13A034605 14:43:23 34 Traff Hazard 167xx Us 30 E & Webster Rd S
13A034606 14:44:33 30 Traffic Stop 152xx Doty Rd & Milan Center Rd
13A034607 14:49:46 14s Serving War 22xx Bryant Ct
13A034608 14:52:09 14s Serving War 7xx Taylor St
13A034609 14:54:00 36 Occupied Veh 110xx Sr 930 E & I 469 Sb
13A034610 15:05:49 120 Grabill 135xx State St
13A034611 15:10:18 30 Traffic Stop 17xx I 469 Nb
13A034612 15:22:39 35 Parked Vehic 135xx Lafayette Center Rd & Fogwel
13A034613 15:23:02 14s Serving War 2xx Third St
13A034614 15:42:13 11 Pick Up Pris 1xx Superior St E
13A034615 15:44:34 46 Domestic 9xx Waverly Dr
13A034616 15:45:07 34 Traff Hazard 319xx I 69 Sb
13A034617 15:45:10 30 Traffic Stop 89xx Us 33 & Lamlie Rd
13A034618 15:45:59 15 Assist 25xx Spy Run Ave & Clinton St N
13A034619 15:48:18 30 Traffic Stop 88xx Smith Rd & Airport Expressway
13A034620 15:49:32 Test Law 66xx Mcbride Dr
13A034621 15:54:05 Test Law 9xx Waverly Dr
13A034622 15:56:40 14s Serving War 22xx Clinton St N & State Blvd E
13A034623 15:57:55 30 Traffic Stop 118xx Indianapolis Rd & Coverdale
13A034624 15:58:25 15 Assist 14xx Cass St
13A034625 15:59:56 30 Traffic Stop 103xx Lima Rd & Dupont Rd W
13A034626 16:00:57 30 Traffic Stop 7xx Dupont Rd E & Coldwater Rd
13A034628 16:04:25 15 Assist 117xx Woodstone Pl
13A034629 16:08:59 911 Hang Up 99xx Diebold Rd
13A034630 16:12:58 1 Meet 160xx Timberwillow Dr
13A034631 16:12:59 72 Fail To Pay 102xx Chestnut Plaza Dr
13A034632 16:18:17 51,attempted 70xx Felger Rd
13A034633 16:18:32 30 Traffic Stop 112xx Diebold Rd & New Vision Dr
13A034634 16:23:35 51,35 133xx Cherry St
13A034644 16:55:31 14s Serving War 14xx Cass St
13A034635 16:58:59 14s Serving War 27xx Maumee Ave
13A034636 17:09:00 33,34 55xx Sr 1 & Tonkel Rd
13A034637 17:14:08 103 Unwanted 103xx Clinton St N
13A034638 17:25:28 25 Pd Accident 19xx I 469 Nb
13A034639 17:26:10 911 Hang Up 19xx I 469 Sb
13A034640 17:30:04 26 Pi Accident 28xx I 469 Sb
13A034641 17:31:24 44 Nuisance 32xx Plantation Trl
13A034642 17:48:42 25 Pd Accident 134xx Yoder Rd W & I 69 Nb
13A034643 17:54:01 108 Followup 179xx Lochner Rd
13A034645 18:01:38 50,attempted 12xx Cedar Canyons Rd W
13A034646 18:11:57 80 Civil Invest 160xx Timberwillow Dr
13A034647 18:13:10 30 Traffic Stop 38xx Airport Expressway & Ardmore
13A034648 18:29:08 25 Pd Accident 320xx I 69 Sb
13A034649 18:29:27 25 Pd Accident 319xx I 69 Sb
13A034650 18:39:41 51 Theft 2xx Pettit Ave E
13A034651 18:51:29 123 Leo/cedarvi 150xx Sr 1
13A034652 18:52:48 14s Serving War 45xx Willow Wick Ln
13A034653 19:04:38 911 Hang Up 126xx Coldwater Rd
13A034654 19:06:09 34 Traff Hazard 128xx Liberty Mills Rd & Westhamil
13A034655 19:18:57 40a Audible 152xx Indian Creek Rd
13A034656 19:22:56 34 Traff Hazard 25xx I 469 Nb
13A034657 19:30:15 34 Traff Hazard 79xx Westcounty Line Rd S & Us 24
13A034658 19:45:50 34 Traff Hazard 139xx Us 24 W & Westhamilton Rd S
13A034659 19:49:44 50 Burglary 51xx Chablis Ct
13A034660 19:52:23 34 Traff Hazard 91xx Aboite Rd
13A034664 19:55:31 Wires Down 71xx Westhamilton Rd S
13A034661 19:57:26 33,34 4xx I 469 Nb
13A034662 19:59:37 34 Traff Hazard 108xx Jefferson Blvd W & Homestead
13A034663 20:04:02 34 Traff Hazard 25xx I 469 Nb
13A034665 20:16:53 51 Theft 103xx Aboite Center Rd
13A034666 20:19:15 34 Traff Hazard 134xx Ernst Rd
13A034667 20:25:01 34 Traff Hazard 140xx White Loon Pass & Aboite Rd
13A034668 20:48:27 14s Serving War 45xx Willow Wick Ln
13A034669 20:48:32 911 Hang Up 117xx Bluffton Rd
13A034670 20:48:38 911 Hang Up 103xx Aboite Center Rd
13A034671 21:08:04 25 Pd Accident 321xx I 69 Nb
13A034672 21:35:53 33 Disabled Veh 321xx I 69 Sb
13A034673 21:41:03 34 Traff Hazard 141xx Liberty Mills Rd & Devils Ho
13A034674 21:44:44 124 Monroeville 2xx South St W
13A034675 21:48:00 25 Pd Accident 321xx I 69 Sb
13A034676 21:48:46 40a Audible 140xx Amstutz Rd
13A034677 22:01:31 124 Monroeville 2xx South St W
13A034678 22:20:35 33 Disabled Veh 15xx Us 24 E Eb & Webster Rd Exit
13A034679 22:25:49 1 Meet 169xx Antwerp Rd
13A034680 22:44:40 911 Hang Up 3xx Water St
13A034681 22:47:30 33 Disabled Veh 15xx Us 24 E Eb & Webster Rd Exit
13A034682 22:52:58 33 Disabled Veh 29xx I 469 Nb
13A034683 22:53:54 911 Hang Up 124xx Sonoma Dr
13A034684 22:54:24 55 Fight 124xx Sonoma Dr
13A034685 22:55:40 40a Audible 103xx Clinton St N
13A034686 23:32:09 34 Traff Hazard 108xx Jefferson Blvd W & Homestead
13A034687 23:36:30 40 Alarm 69xx Flutter Rd
13A034688 23:39:38 48,36 40xx Hathaway Rd
13A034689 23:48:31 34 Traff Hazard 6xx Shoaff Rd E & Coldwater Rd
13A034690 23:55:17 41,36 3xx North St